Le nostre stazioni meteo in Italia

Pubblicità
Il mio iltempo24.it
Kielder Castle, Gran Bretagna (99186): Temperatura & dewpoint: 16.06.2017 21:00:00 - 22.06.2017 21:00:00 (BST)Kielder Castle, Gran Bretagna (99186): Temperatura 5cm: 16.06.2017 21:00:00 - 22.06.2017 21:00:00 (BST)Kielder Castle, Gran Bretagna (99186): Temperatura -20cm & Temperatura -100cm: 16.06.2017 21:00:00 - 22.06.2017 21:00:00 (BST)Kielder Castle, Gran Bretagna (99186): visibility: 16.06.2017 21:00:00 - 22.06.2017 21:00:00 (BST)Kielder Castle, Gran Bretagna (99186): precipitazioni: 16.06.2017 21:00:00 - 22.06.2017 21:00:00 (BST)
Data & Tempo tt [°C] td [°C] tt 5cm [°C] tt -20cm [°C] tt -100cm [°C] vv [km] rr [mm]
22.06.2017 21:00:00 13,8 10,7 - - - - 0,0
22.06.2017 20:00:00 15,1 10,4 - - - - 0,0
22.06.2017 19:00:00 16,5 10,6 - - - - 0,0
22.06.2017 18:00:00 18,1 10,0 - - - - 0,0
22.06.2017 17:00:00 19,1 11,8 - - - - 0,0
22.06.2017 16:00:00 18,9 11,9 - - - - 0,0
22.06.2017 15:00:00 18,9 12,9 - - - - 0,0
22.06.2017 14:00:00 17,3 12,0 - - - - 0,0
22.06.2017 13:00:00 17,6 12,2 - - - - 0,0
22.06.2017 12:00:00 17,1 11,0 - - - - 0,0
22.06.2017 11:00:00 15,9 10,9 - - - - 0,0
22.06.2017 10:00:00 17,1 12,2 - 18,4 14,7 4,8 0,0
22.06.2017 09:00:00 15,7 13,0 - - - - 0,0
22.06.2017 08:00:00 16,7 15,4 - - - - 0,0
22.06.2017 07:00:00 15,9 15,2 - - - - 0,0
22.06.2017 06:00:00 15,6 14,9 - - - - 0,0
22.06.2017 05:00:00 15,6 14,8 - - - - 0,0
22.06.2017 04:00:00 16,1 15,1 - - - - 0,0
22.06.2017 03:00:00 16,1 15,0 - - - - 0,0
22.06.2017 02:00:00 16,3 14,9 - - - - 0,0
22.06.2017 01:00:00 17,0 14,9 - - - - 0,0
22.06.2017 00:00:00 18,6 14,9 - - - - 0,0
21.06.2017 23:00:00 19,3 17,8 - - - - 0,0
21.06.2017 22:00:00 19,3 17,7 - - - - 0,0
21.06.2017 21:00:00 21,4 18,1 - - - - 0,0
21.06.2017 20:00:00 22,7 17,5 - - - - 0,0
21.06.2017 19:00:00 23,4 17,3 - - - - 0,0
21.06.2017 18:00:00 23,0 17,7 - - - - 0,0
21.06.2017 17:00:00 22,5 17,3 - - - - 0,0
21.06.2017 16:00:00 22,0 17,6 - - - - 0,0
21.06.2017 15:00:00 20,7 17,9 - - - - 0,0
21.06.2017 14:00:00 20,1 17,5 - - - - 0,0
21.06.2017 13:00:00 17,5 15,8 - - - - 0,0
21.06.2017 12:00:00 15,7 14,5 - - - - 0,0
21.06.2017 11:00:00 14,0 13,0 - - - - 0,2
21.06.2017 10:00:00 13,2 12,1 14,2 18,2 14,2 0,1 1,4
21.06.2017 09:00:00 14,1 11,1 - - - - 0,0
21.06.2017 08:00:00 13,6 10,0 - - - - 0,0
21.06.2017 07:00:00 13,1 9,5 - - - - 0,0
21.06.2017 06:00:00 12,3 8,3 - - - - 0,0
21.06.2017 05:00:00 11,8 7,7 - - - - 0,0
21.06.2017 04:00:00 11,8 7,9 - - - - 0,0
21.06.2017 03:00:00 11,8 8,0 - - - - 0,0
21.06.2017 02:00:00 11,9 9,2 - - - - 0,0
21.06.2017 01:00:00 12,0 10,2 - - - - 0,0
21.06.2017 00:00:00 12,8 10,7 - - - - 0,0
20.06.2017 23:00:00 13,6 11,0 - - - - 0,0
20.06.2017 22:00:00 13,8 11,1 - - - - 0,0
20.06.2017 21:00:00 14,5 11,4 - - - - 0,0
20.06.2017 20:00:00 15,5 11,6 - - - - 0,0
20.06.2017 19:00:00 16,8 11,8 - - - - 0,0
20.06.2017 18:00:00 19,0 12,0 - - - - 0,0
20.06.2017 17:00:00 19,1 11,7 - - - - 0,0
20.06.2017 16:00:00 19,7 12,1 - - - - 0,0
20.06.2017 15:00:00 19,5 11,8 - - - - 0,0
20.06.2017 14:00:00 18,3 10,8 - - - - 0,0
20.06.2017 13:00:00 18,5 11,0 - - - - 0,0
20.06.2017 12:00:00 16,6 12,1 - - - - 0,0
20.06.2017 11:00:00 16,7 11,7 - - - - 0,0
20.06.2017 10:00:00 14,5 11,2 16,8 18,2 14,0 24 0,0
20.06.2017 09:00:00 13,7 10,6 - - - - 0,0
20.06.2017 08:00:00 14,7 10,6 - - - - 0,0
20.06.2017 07:00:00 12,3 9,7 - - - - 0,0
20.06.2017 06:00:00 8,7 7,3 - - - - 0,0
20.06.2017 05:00:00 8,2 7,1 - - - - 0,0
20.06.2017 04:00:00 8,9 7,5 - - - - 0,0
20.06.2017 03:00:00 9,7 8,2 - - - - 0,0
20.06.2017 02:00:00 11,0 8,8 - - - - 0,0
20.06.2017 01:00:00 12,7 10,8 - - - - 0,0
20.06.2017 00:00:00 12,9 11,2 - - - - 0,0
19.06.2017 23:00:00 14,8 11,6 - - - - 0,0
19.06.2017 22:00:00 16,7 11,7 - - - - 0,0
19.06.2017 21:00:00 18,4 11,6 - - - - 0,0
19.06.2017 20:00:00 20,1 11,9 - - - - 0,0
19.06.2017 19:00:00 22,2 15,7 - - - - 0,0
19.06.2017 18:00:00 23,4 15,3 - - - - 0,0
19.06.2017 17:00:00 24,4 14,2 - - - - 0,0
19.06.2017 16:00:00 24,6 15,7 - - - - 0,0
19.06.2017 15:00:00 24,3 15,1 - - - - 0,0
19.06.2017 14:00:00 23,8 14,8 - - - - 0,0
19.06.2017 13:00:00 23,2 14,5 - - - - 0,0
19.06.2017 12:00:00 23,0 14,0 - - - - 0,0
19.06.2017 11:00:00 21,8 13,8 - - - - 0,0
19.06.2017 10:00:00 20,8 12,4 20,9 17,5 13,7 18 0,0
19.06.2017 09:00:00 19,4 13,0 - - - - 0,0
19.06.2017 08:00:00 17,4 14,2 - - - - 0,0
19.06.2017 07:00:00 13,1 11,9 - - - - 0,0
19.06.2017 06:00:00 8,5 8,2 - - - - 0,0
19.06.2017 05:00:00 8,3 7,8 - - - - 0,0
19.06.2017 04:00:00 8,8 8,3 - - - - 0,0
19.06.2017 03:00:00 9,6 9,0 - - - - 0,0
19.06.2017 02:00:00 10,5 9,7 - - - - 0,0
19.06.2017 01:00:00 11,5 10,6 - - - - 0,0
19.06.2017 00:00:00 12,7 11,5 - - - - 0,0
18.06.2017 23:00:00 14,1 12,5 - - - - 0,0
18.06.2017 22:00:00 16,2 13,4 - - - - 0,0
18.06.2017 21:00:00 19,2 13,7 - - - - 0,0
18.06.2017 20:00:00 20,3 13,5 - - - - 0,0
18.06.2017 19:00:00 21,3 13,3 - - - - 0,0
18.06.2017 18:00:00 22,7 13,7 - - - - 0,0
18.06.2017 17:00:00 23,3 14,3 - - - - 0,0
18.06.2017 16:00:00 23,3 13,8 - - - - 0,0
18.06.2017 15:00:00 23,4 14,1 - - - - 0,0
18.06.2017 14:00:00 22,7 13,3 - - - - 0,0
18.06.2017 13:00:00 22,6 13,5 - - - - 0,0
18.06.2017 12:00:00 21,7 12,4 - - - - 0,0
18.06.2017 11:00:00 20,7 14,7 - - - - 0,0
18.06.2017 10:00:00 19,4 14,8 19,4 16,7 13,4 30 0,0
18.06.2017 09:00:00 16,3 13,1 - - - - 0,0
18.06.2017 08:00:00 14,0 12,5 - - - - 0,0
18.06.2017 07:00:00 13,5 12,2 - - - - 0,0
18.06.2017 06:00:00 12,8 12,3 - - - - 0,0
18.06.2017 05:00:00 11,4 11,2 - - - - 0,0
18.06.2017 04:00:00 10,3 9,8 - - - - 0,0
18.06.2017 03:00:00 10,3 9,7 - - - - 0,0
18.06.2017 02:00:00 10,9 10,1 - - - - 0,0
18.06.2017 01:00:00 11,9 10,7 - - - - 0,0
18.06.2017 00:00:00 12,7 11,0 - - - - 0,0
17.06.2017 23:00:00 14,6 11,3 - - - - 0,0
17.06.2017 22:00:00 16,0 12,5 - - - 10 0,0
17.06.2017 21:00:00 16,4 12,5 - - - - 0,0
17.06.2017 20:00:00 17,4 12,1 - - - - 0,0
17.06.2017 19:00:00 18,4 12,2 - - - - 0,0
17.06.2017 18:00:00 19,0 13,1 - - - - 0,0
17.06.2017 17:00:00 21,1 14,7 - - - - 0,0
17.06.2017 16:00:00 22,2 15,7 - - - - 0,0
17.06.2017 15:00:00 22,2 15,7 - - - - 0,0
17.06.2017 14:00:00 21,8 16,1 - - - - 0,0
17.06.2017 13:00:00 21,1 14,6 - - - - 0,0
17.06.2017 12:00:00 20,1 14,1 - - - - 0,0
17.06.2017 11:00:00 19,5 14,1 - - - - 0,0
17.06.2017 10:00:00 17,7 12,7 17,8 15,5 13,4 0,8 0,0
17.06.2017 09:00:00 16,8 12,7 - - - - 0,0
17.06.2017 08:00:00 15,9 12,1 - - - - 0,0
17.06.2017 07:00:00 15,5 12,5 - - - - 0,0
17.06.2017 06:00:00 14,0 11,6 - - - - 0,0
17.06.2017 05:00:00 13,3 11,8 - - - - 0,0
17.06.2017 04:00:00 14,3 12,8 - - - - 0,0
17.06.2017 03:00:00 14,9 13,9 - - - - 0,0
17.06.2017 02:00:00 15,1 14,2 - - - - 0,0
17.06.2017 01:00:00 14,9 14,0 - - - - 0,0
17.06.2017 00:00:00 14,4 13,6 - - - - 0,0
16.06.2017 23:00:00 14,4 13,6 - - - - 0,0
16.06.2017 22:00:00 14,7 13,7 - - - - 0,0
16.06.2017 21:00:00 14,7 13,7 - - - - 0,0

tt = Temperatura
td = dewpoint
tt 5cm = Temperatura 5cm
tt -20cm = Temperatura -20cm
tt -100cm = Temperatura -100cm
vv = visibility
rr = precipitazioni

Stazioni seguenti

WeatherPro
AMSI
MeteoEarth